Location: Chiroubles
(46.1812°N, 4.6660°E)
Time: 05:52:42
(UTC+00:00)

Transit 4A - Pass Details

Date: 06 December 2020
Orbit: 864 x 981 km, 66.8° (Epoch: 16 January)

Event Time Altitude Azimuth Distance (km) Brightness Sun altitude
Rises 12:35:47 0° 328° (NNW) 3,690 10.6 19.8°
Reaches altitude 10° 12:39:01 10° 343° (NNW) 2,732 9.9 19.6°
Maximum altitude 12:43:55 22° 33° (NNE) 1,957 9.2 19.4°
Drops below altitude 10° 12:48:44 10° 83° (E) 2,681 10.1 19.1°
Sets 12:51:51 0° 99° (E) 3,604 10.9 18.9°
